User: anonymous   Login
Location: Knowlton
(51.2333°N, 1.2667°E)
Time: 03:27:27
(UTC+00:00)
Language:

ZACube-1 - Orbit

View from above orbital plane
View from above orbital plane
View from above satellite
View from above satellite

Ground track
Ground track

The orbit data is extracted from the following two-line orbital elements,

1 39417U 13066B   21332.76614372  .00000745  00000-0  98436-4 0  9997
2 39417  97.6124 308.7553 0058089 344.0150  15.9228 14.81693983433406
Epoch (UTC): 28 November 2021 18:23:14
Eccentricity: 0.0058089
inclination: 97.6124°
perigee height: 583 km
apogee height: 664 km
right ascension of ascending node: 308.7553°
argument of perigee: 344.0150°
revolutions per day: 14.81693983
mean anomaly at epoch: 15.9228°
orbit number at epoch: 43340

The dashed part of the orbit path shows where the satellite is in the earth's shadow,  

DLR